| time (UTC) | temp F | wind direction | speed knots | gust knots | rain 1hr in | rain 24hr in | rain mn in | humidity % | barometer mb |
| 20260507224007 | 54 | 186 | 0.0 | 3.5 | 0.00 | 0.02 | 0.00 | 56 | 1012.1 |
| 20260507223503 | 55 | 349 | 0.0 | 3.5 | 0.00 | 0.02 | 0.00 | 57 | 1012.1 |
| 20260507223002 | 55 | 306 | 0.9 | 3.5 | 0.00 | 0.02 | 0.00 | 57 | 1012.1 |
| 20260507222501 | 55 | 144 | 0.0 | 3.5 | 0.00 | 0.02 | 0.00 | 58 | 1012.0 |
| 20260507222059 | 55 | 196 | 0.9 | 3.5 | 0.00 | 0.02 | 0.00 | 59 | 1011.9 |
| 20260507221559 | 55 | 178 | 0.0 | 2.6 | 0.00 | 0.02 | 0.00 | 59 | 1011.9 |
| 20260507221057 | 55 | 186 | 0.0 | 2.6 | 0.00 | 0.02 | 0.00 | 59 | 1011.8 |
| 20260507220558 | 56 | 320 | 0.9 | 2.6 | 0.00 | 0.02 | 0.00 | 60 | 1011.9 |
| 20260507215555 | 56 | 360 | 0.0 | 2.6 | 0.00 | 0.02 | 0.02 | 61 | 1011.9 |
| 20260507215055 | 56 | 67 | 0.0 | 2.6 | 0.00 | 0.02 | 0.02 | 62 | 1011.9 |
| 20260507214600 | 57 | 59 | 0.9 | 2.6 | 0.00 | 0.02 | 0.02 | 63 | 1012.0 |
| 20260507214055 | 57 | 200 | 0.0 | 1.7 | 0.00 | 0.02 | 0.02 | 63 | 1011.9 |
| 20260507213559 | 57 | 192 | 0.0 | 2.6 | 0.00 | 0.02 | 0.02 | 63 | 1011.9 |
| 20260507213055 | 58 | 15 | 0.0 | 2.6 | 0.00 | 0.02 | 0.02 | 63 | 1011.9 |
| 20260507212557 | 58 | 252 | 0.0 | 2.6 | 0.00 | 0.02 | 0.02 | 63 | 1012.0 |
| 20260507212054 | 58 | 275 | 0.0 | 2.6 | 0.00 | 0.02 | 0.02 | 63 | 1012.0 |
| 20260507211554 | 59 | 63 | 0.9 | 2.6 | 0.00 | 0.02 | 0.02 | 63 | 1012.0 |
| 20260507211054 | 59 | 209 | 0.0 | 7.0 | 0.00 | 0.02 | 0.02 | 63 | 1011.9 |
| 20260507210558 | 59 | 323 | 0.0 | 9.6 | 0.00 | 0.02 | 0.02 | 63 | 1012.0 |
| 20260507210055 | 59 | 108 | 4.3 | 9.6 | 0.00 | 0.02 | 0.02 | 63 | 1012.0 |
| 20260507205553 | 59 | 65 | 0.9 | 8.7 | 0.00 | 0.02 | 0.02 | 63 | 1012.0 |
| 20260507205053 | 59 | 60 | 0.9 | 5.2 | 0.00 | 0.02 | 0.02 | 63 | 1011.9 |
| 20260507204558 | 59 | 5 | 0.9 | 3.5 | 0.00 | 0.02 | 0.02 | 62 | 1011.9 |
| 20260507204054 | 60 | 10 | 1.7 | 3.5 | 0.00 | 0.02 | 0.02 | 63 | 1012.0 |
| 20260507203554 | 60 | 42 | 1.7 | 3.5 | 0.00 | 0.02 | 0.02 | 64 | 1012.1 |
| 20260507203052 | 60 | 26 | 0.9 | 3.5 | 0.00 | 0.02 | 0.02 | 65 | 1012.1 |
| 20260507202555 | 60 | 355 | 0.9 | 5.2 | 0.00 | 0.02 | 0.02 | 65 | 1012.1 |
| 20260507202051 | 60 | 360 | 1.7 | 5.2 | 0.00 | 0.02 | 0.02 | 65 | 1012.1 |
| 20260507201557 | 60 | 67 | 0.9 | 6.1 | 0.00 | 0.02 | 0.02 | 65 | 1012.1 |
| 20260507201051 | 61 | 72 | 2.6 | 7.8 | 0.00 | 0.02 | 0.02 | 65 | 1012.1 |
| 20260507200551 | 61 | 91 | 0.9 | 7.8 | 0.00 | 0.02 | 0.02 | 65 | 1012.1 |
| 20260507200054 | 61 | 94 | 1.7 | 7.8 | 0.00 | 0.04 | 0.02 | 65 | 1012.1 |
| 20260507195551 | 61 | 111 | 1.7 | 10.4 | 0.00 | 0.04 | 0.02 | 65 | 1012.0 |
| 20260507195051 | 61 | 96 | 4.3 | 10.4 | 0.00 | 0.04 | 0.02 | 65 | 1012.0 |
| 20260507194551 | 61 | 75 | 5.2 | 9.6 | 0.00 | 0.04 | 0.02 | 65 | 1012.0 |
| 20260507194051 | 62 | 70 | 1.7 | 7.8 | 0.00 | 0.04 | 0.02 | 65 | 1012.0 |
| 20260507193551 | 62 | 107 | 2.6 | 7.8 | 0.00 | 0.04 | 0.02 | 65 | 1011.9 |
| 20260507193053 | 62 | 113 | 3.5 | 10.4 | 0.00 | 0.04 | 0.02 | 65 | 1011.9 |
| 20260507192550 | 62 | 107 | 4.3 | 10.4 | 0.00 | 0.04 | 0.02 | 65 | 1011.9 |
| 20260507192052 | 62 | 115 | 5.2 | 9.6 | 0.00 | 0.04 | 0.02 | 65 | 1011.8 |
| 20260507191555 | 62 | 98 | 6.1 | 9.6 | 0.00 | 0.04 | 0.02 | 65 | 1011.9 |
| 20260507191049 | 62 | 104 | 3.5 | 9.6 | 0.00 | 0.04 | 0.02 | 65 | 1011.7 |
| 20260507190549 | 62 | 83 | 5.2 | 9.6 | 0.00 | 0.04 | 0.02 | 65 | 1011.7 |
| 20260507190053 | 63 | 107 | 5.2 | 9.6 | 0.00 | 0.04 | 0.02 | 65 | 1011.8 |
| 20260507185549 | 63 | 90 | 5.2 | 10.4 | 0.00 | 0.04 | 0.02 | 65 | 1011.9 |
| 20260507185048 | 63 | 113 | 5.2 | 10.4 | 0.00 | 0.04 | 0.02 | 64 | 1011.7 |
| 20260507184552 | 63 | 136 | 2.6 | 11.3 | 0.00 | 0.04 | 0.02 | 64 | 1011.7 |
| 20260507184049 | 64 | 69 | 3.5 | 11.3 | 0.00 | 0.04 | 0.02 | 65 | 1011.7 |
| 20260507183548 | 64 | 105 | 3.5 | 10.4 | 0.00 | 0.04 | 0.02 | 65 | 1011.8 |
| 20260507183048 | 64 | 107 | 3.5 | 10.4 | 0.00 | 0.04 | 0.02 | 65 | 1011.7 |
| 20260507182547 | 64 | 69 | 4.3 | 9.6 | 0.00 | 0.04 | 0.02 | 65 | 1011.7 |
| 20260507182048 | 65 | 60 | 4.3 | 9.6 | 0.00 | 0.04 | 0.02 | 65 | 1011.6 |
| 20260507181556 | 65 | 35 | 4.3 | 9.6 | 0.00 | 0.04 | 0.02 | 64 | 1011.7 |
| 20260507181047 | 66 | 69 | 2.6 | 10.4 | 0.00 | 0.04 | 0.02 | 64 | 1011.6 |
| 20260507180546 | 66 | 74 | 4.3 | 10.4 | 0.00 | 0.04 | 0.02 | 62 | 1011.6 |
| 20260507180047 | 66 | 59 | 4.3 | 10.4 | 0.00 | 0.04 | 0.02 | 59 | 1011.5 |
| 20260507175548 | 67 | 61 | 0.9 | 5.2 | 0.00 | 0.04 | 0.02 | 59 | 1011.4 |
| 20260507175046 | 67 | 60 | 0.9 | 3.5 | 0.00 | 0.04 | 0.02 | 58 | 1011.4 |
| 20260507174553 | 68 | 51 | 1.7 | 2.6 | 0.00 | 0.04 | 0.02 | 57 | 1011.2 |
| 20260507174046 | 68 | 42 | 0.9 | 2.6 | 0.00 | 0.04 | 0.02 | 55 | 1011.2 |
| 20260507173546 | 69 | 323 | 0.9 | 3.5 | 0.00 | 0.04 | 0.02 | 54 | 1011.2 |
| 20260507173047 | 69 | 360 | 0.9 | 3.5 | 0.00 | 0.04 | 0.02 | 53 | 1011.2 |
| 20260507172545 | 69 | 320 | 1.7 | 4.3 | 0.00 | 0.04 | 0.02 | 52 | 1011.1 |
| 20260507172044 | 70 | 321 | 1.7 | 4.3 | 0.00 | 0.04 | 0.02 | 52 | 1011.1 |
| 20260507171545 | 70 | 337 | 1.7 | 4.3 | 0.00 | 0.04 | 0.02 | 52 | 1011.0 |
| 20260507171045 | 70 | 281 | 1.7 | 4.3 | 0.00 | 0.04 | 0.02 | 52 | 1011.0 |
| 20260507170545 | 70 | 340 | 1.7 | 4.3 | 0.00 | 0.04 | 0.02 | 52 | 1010.9 |
| 20260507170050 | 70 | 331 | 1.7 | 4.3 | 0.00 | 0.04 | 0.02 | 52 | 1010.9 |
| 20260507165544 | 70 | 331 | 0.9 | 5.2 | 0.00 | 0.04 | 0.02 | 52 | 1011.0 |
| 20260507165044 | 70 | 5 | 2.6 | 5.2 | 0.00 | 0.04 | 0.02 | 52 | 1011.0 |
| 20260507164544 | 70 | 347 | 1.7 | 5.2 | 0.00 | 0.04 | 0.02 | 52 | 1010.9 |
| 20260507164049 | 70 | 340 | 2.6 | 5.2 | 0.00 | 0.04 | 0.02 | 53 | 1010.9 |
| 20260507163544 | 69 | 344 | 2.6 | 5.2 | 0.00 | 0.04 | 0.02 | 53 | 1010.9 |
| 20260507163044 | 69 | 334 | 1.7 | 5.2 | 0.00 | 0.04 | 0.02 | 55 | 1010.9 |
| 20260507162543 | 69 | 296 | 0.0 | 4.3 | 0.00 | 0.04 | 0.02 | 54 | 1011.0 |
| 20260507162044 | 69 | 282 | 0.9 | 3.5 | 0.00 | 0.04 | 0.02 | 56 | 1011.0 |
| 20260507161541 | 69 | 203 | 0.0 | 5.2 | 0.00 | 0.04 | 0.02 | 55 | 1011.1 |
| 20260507161041 | 69 | 329 | 0.9 | 5.2 | 0.00 | 0.04 | 0.02 | 56 | 1011.2 |
| 20260507160541 | 69 | 269 | 1.7 | 5.2 | 0.00 | 0.04 | 0.02 | 55 | 1011.3 |
| 20260507160041 | 69 | 350 | 1.7 | 4.3 | 0.00 | 0.04 | 0.02 | 55 | 1011.2 |
| 20260507155540 | 69 | 231 | 0.0 | 4.3 | 0.00 | 0.04 | 0.02 | 56 | 1011.2 |
| 20260507155040 | 69 | 196 | 0.0 | 6.1 | 0.00 | 0.04 | 0.02 | 57 | 1011.2 |
| 20260507154542 | 69 | 227 | 3.5 | 6.1 | 0.00 | 0.04 | 0.02 | 56 | 1011.2 |
| 20260507154040 | 69 | 266 | 0.9 | 4.3 | 0.00 | 0.04 | 0.02 | 57 | 1011.3 |
| 20260507153541 | 69 | 298 | 0.9 | 5.2 | 0.00 | 0.04 | 0.02 | 57 | 1011.3 |
| 20260507153048 | 70 | 228 | 1.7 | 5.2 | 0.00 | 0.04 | 0.02 | 57 | 1011.3 |
| 20260507152538 | 69 | 334 | 1.7 | 5.2 | 0.00 | 0.04 | 0.02 | 56 | 1011.3 |
| 20260507152038 | 69 | 109 | 0.9 | 3.5 | 0.00 | 0.04 | 0.02 | 56 | 1011.3 |
| 20260507151537 | 68 | 246 | 0.9 | 2.6 | 0.00 | 0.04 | 0.02 | 56 | 1011.4 |
| 20260507151037 | 68 | 346 | 0.9 | 2.6 | 0.00 | 0.04 | 0.02 | 58 | 1011.4 |
| 20260507150538 | 68 | 337 | 0.9 | 3.5 | 0.00 | 0.04 | 0.02 | 58 | 1011.5 |
| 20260507150040 | 70 | 263 | 0.9 | 3.5 | 0.00 | 0.04 | 0.02 | 57 | 1011.4 |
| 20260507145537 | 70 | 272 | 0.9 | 3.5 | 0.00 | 0.04 | 0.02 | 55 | 1011.5 |
| 20260507145036 | 70 | 317 | 0.9 | 4.3 | 0.00 | 0.04 | 0.02 | 55 | 1011.5 |
| 20260507144535 | 70 | 238 | 0.0 | 6.1 | 0.00 | 0.04 | 0.02 | 56 | 1011.5 |
| 20260507144037 | 69 | 202 | 1.7 | 7.0 | 0.00 | 0.04 | 0.02 | 58 | 1011.7 |
| 20260507143535 | 69 | 268 | 3.5 | 7.0 | 0.00 | 0.04 | 0.02 | 56 | 1011.8 |
| 20260507143036 | 69 | 5 | 3.5 | 7.0 | 0.00 | 0.04 | 0.02 | 55 | 1011.8 |
| 20260507142534 | 70 | 336 | 1.7 | 6.1 | 0.00 | 0.04 | 0.02 | 55 | 1011.7 |
| 20260507142033 | 70 | 287 | 0.9 | 11.3 | 0.00 | 0.04 | 0.02 | 58 | 1011.8 |
| 20260507141534 | 70 | 36 | 1.7 | 11.3 | 0.00 | 0.04 | 0.02 | 58 | 1011.8 |
| 20260507141034 | 70 | 341 | 0.0 | 6.1 | 0.00 | 0.04 | 0.02 | 54 | 1011.9 |
| 20260507140534 | 71 | 333 | 0.9 | 9.6 | 0.00 | 0.04 | 0.02 | 52 | 1012.0 |
| 20260507140033 | 71 | 213 | 2.6 | 9.6 | 0.00 | 0.04 | 0.02 | 56 | 1012.0 |
| 20260507135534 | 70 | 261 | 1.7 | 7.8 | 0.00 | 0.04 | 0.02 | 56 | 1012.0 |
| 20260507135031 | 70 | 271 | 1.7 | 6.1 | 0.00 | 0.04 | 0.02 | 56 | 1012.0 |
| 20260507134534 | 69 | 177 | 0.9 | 6.1 | 0.00 | 0.04 | 0.02 | 58 | 1012.0 |
| 20260507134030 | 68 | 234 | 0.0 | 4.3 | 0.00 | 0.04 | 0.02 | 56 | 1012.2 |
| 20260507133531 | 68 | 227 | 1.7 | 5.2 | 0.00 | 0.04 | 0.02 | 56 | 1012.2 |
| 20260507133031 | 68 | 76 | 2.6 | 5.2 | 0.00 | 0.04 | 0.02 | 57 | 1012.2 |
| 20260507132530 | 68 | 316 | 0.9 | 5.2 | 0.00 | 0.04 | 0.02 | 57 | 1012.2 |
| 20260507132029 | 69 | 269 | 2.6 | 5.2 | 0.00 | 0.04 | 0.02 | 56 | 1012.3 |
| 20260507131536 | 69 | 276 | 0.9 | 7.0 | 0.00 | 0.04 | 0.02 | 57 | 1012.3 |
| 20260507131030 | 69 | 249 | 0.9 | 7.8 | 0.00 | 0.04 | 0.02 | 54 | 1012.4 |
| 20260507130529 | 69 | 210 | 2.6 | 7.8 | 0.00 | 0.04 | 0.02 | 56 | 1012.5 |
| 20260507130029 | 69 | 231 | 3.5 | 8.7 | 0.00 | 0.04 | 0.02 | 55 | 1012.4 |
| 20260507125529 | 69 | 252 | 1.7 | 5.2 | 0.00 | 0.04 | 0.02 | 56 | 1012.4 |
| 20260507125028 | 69 | 179 | 1.7 | 7.0 | 0.00 | 0.04 | 0.02 | 56 | 1012.4 |
| 20260507124528 | 69 | 207 | 3.5 | 7.8 | 0.00 | 0.04 | 0.02 | 56 | 1012.4 |
| 20260507124028 | 70 | 207 | 3.5 | 7.8 | 0.00 | 0.04 | 0.02 | 55 | 1012.4 |
| 20260507123529 | 70 | 266 | 2.6 | 7.0 | 0.00 | 0.04 | 0.02 | 55 | 1012.3 |
| 20260507123028 | 70 | 263 | 0.0 | 8.7 | 0.00 | 0.04 | 0.02 | 53 | 1012.4 |
| 20260507122529 | 70 | 194 | 3.5 | 8.7 | 0.00 | 0.04 | 0.02 | 55 | 1012.4 |
| 20260507122026 | 70 | 192 | 1.7 | 8.7 | 0.00 | 0.04 | 0.02 | 55 | 1012.4 |
| 20260507121526 | 70 | 194 | 0.9 | 9.6 | 0.00 | 0.04 | 0.02 | 54 | 1012.4 |
| 20260507121025 | 70 | 228 | 3.5 | 9.6 | 0.00 | 0.04 | 0.02 | 56 | 1012.4 |
| 20260507120524 | 69 | 202 | 2.6 | 8.7 | 0.00 | 0.04 | 0.02 | 59 | 1012.5 |
| 20260507120037 | 69 | 221 | 3.5 | 8.7 | 0.00 | 0.04 | 0.02 | 58 | 1012.5 |
| 20260507115524 | 69 | 213 | 2.6 | 8.7 | 0.00 | 0.04 | 0.02 | 58 | 1012.5 |
| 20260507115024 | 69 | 225 | 3.5 | 8.7 | 0.00 | 0.04 | 0.02 | 59 | 1012.5 |
| 20260507114525 | 69 | 148 | 1.7 | 5.2 | 0.00 | 0.04 | 0.02 | 61 | 1012.5 |
| 20260507114024 | 68 | 203 | 2.6 | 7.0 | 0.00 | 0.04 | 0.02 | 64 | 1012.7 |
| 20260507113524 | 67 | 229 | 1.7 | 9.6 | 0.00 | 0.04 | 0.02 | 61 | 1012.7 |
| 20260507113024 | 67 | 244 | 3.5 | 9.6 | 0.00 | 0.04 | 0.02 | 62 | 1012.6 |
| 20260507112523 | 67 | 330 | 0.0 | 10.4 | 0.00 | 0.04 | 0.02 | 60 | 1012.7 |
| 20260507112023 | 68 | 130 | 3.5 | 10.4 | 0.00 | 0.04 | 0.02 | 61 | 1012.7 |
| 20260507111524 | 68 | 193 | 1.7 | 7.8 | 0.00 | 0.04 | 0.02 | 61 | 1012.8 |
| 20260507111022 | 69 | 253 | 2.6 | 7.0 | 0.00 | 0.04 | 0.02 | 59 | 1012.7 |
| 20260507110521 | 69 | 213 | 2.6 | 8.7 | 0.00 | 0.04 | 0.02 | 61 | 1012.7 |
| 20260507110021 | 68 | 202 | 4.3 | 8.7 | 0.00 | 0.04 | 0.02 | 60 | 1012.9 |
| 20260507105520 | 69 | 180 | 1.7 | 9.6 | 0.00 | 0.04 | 0.02 | 62 | 1012.8 |
| 20260507105020 | 69 | 106 | 0.9 | 9.6 | 0.00 | 0.04 | 0.02 | 62 | 1012.9 |
| 20260507104521 | 69 | 246 | 4.3 | 9.6 | 0.00 | 0.04 | 0.02 | 63 | 1013.0 |
| 20260507104019 | 69 | 186 | 1.7 | 7.8 | 0.00 | 0.04 | 0.02 | 64 | 1013.0 |
| 20260507103519 | 68 | 184 | 2.6 | 7.8 | 0.00 | 0.04 | 0.02 | 65 | 1013.1 |
| 20260507103017 | 67 | 185 | 1.7 | 7.0 | 0.00 | 0.04 | 0.02 | 64 | 1013.0 |
| 20260507102519 | 67 | 215 | 2.6 | 6.1 | 0.00 | 0.04 | 0.02 | 64 | 1013.0 |
| 20260507102016 | 67 | 203 | 1.7 | 6.1 | 0.00 | 0.04 | 0.02 | 65 | 1013.0 |
| 20260507101516 | 66 | 187 | 2.6 | 7.8 | 0.00 | 0.04 | 0.02 | 65 | 1013.2 |
| 20260507101015 | 66 | 215 | 1.7 | 7.8 | 0.00 | 0.04 | 0.02 | 64 | 1013.1 |
| 20260507100515 | 66 | 207 | 2.6 | 7.8 | 0.00 | 0.04 | 0.02 | 65 | 1013.1 |
| 20260507100014 | 66 | 223 | 2.6 | 7.8 | 0.00 | 0.04 | 0.02 | 65 | 1013.1 |
| 20260507095517 | 66 | 192 | 3.5 | 7.0 | 0.00 | 0.04 | 0.02 | 65 | 1013.2 |
| 20260507095015 | 65 | 209 | 2.6 | 5.2 | 0.00 | 0.04 | 0.02 | 65 | 1013.2 |
| 20260507094614 | 64 | 234 | 2.6 | 9.6 | 0.00 | 0.04 | 0.02 | 65 | 1013.3 |
| 20260507094014 | 65 | 254 | 2.6 | 9.6 | 0.00 | 0.04 | 0.02 | 65 | 1013.3 |
| 20260507093514 | 65 | 195 | 1.7 | 6.1 | 0.00 | 0.04 | 0.02 | 65 | 1013.2 |
| 20260507093014 | 66 | 232 | 1.7 | 6.1 | 0.00 | 0.04 | 0.02 | 65 | 1013.3 |
| 20260507092512 | 66 | 215 | 1.7 | 8.7 | 0.00 | 0.04 | 0.02 | 64 | 1013.4 |
| 20260507092011 | 66 | 255 | 4.3 | 10.4 | 0.00 | 0.04 | 0.02 | 65 | 1013.4 |
| 20260507091514 | 65 | 236 | 1.7 | 10.4 | 0.00 | 0.04 | 0.02 | 64 | 1013.4 |
| 20260507091011 | 65 | 231 | 3.5 | 7.8 | 0.00 | 0.04 | 0.02 | 64 | 1013.4 |
| 20260507090508 | 64 | 245 | 3.5 | 8.7 | 0.00 | 0.04 | 0.02 | 60 | 1013.4 |
| 20260507090009 | 62 | 219 | 3.5 | 8.7 | 0.00 | 0.04 | 0.02 | 59 | 1013.3 |
| 20260507085506 | 61 | 238 | 3.5 | 8.7 | 0.00 | 0.04 | 0.02 | 62 | 1013.4 |
| 20260507085006 | 61 | 267 | 2.6 | 8.7 | 0.00 | 0.04 | 0.02 | 63 | 1013.3 |
| 20260507084511 | 61 | 245 | 1.7 | 7.0 | 0.00 | 0.04 | 0.02 | 63 | 1013.3 |
| 20260507084005 | 62 | 234 | 1.7 | 8.7 | 0.00 | 0.04 | 0.02 | 63 | 1013.5 |
| 20260507083505 | 62 | 217 | 0.9 | 8.7 | 0.00 | 0.04 | 0.02 | 61 | 1013.5 |
| 20260507083004 | 62 | 261 | 1.7 | 5.2 | 0.00 | 0.04 | 0.02 | 58 | 1013.6 |
| 20260507082502 | 61 | 205 | 0.9 | 7.0 | 0.00 | 0.04 | 0.02 | 54 | 1013.4 |
| 20260507082103 | 60 | 207 | 3.5 | 7.0 | 0.00 | 0.04 | 0.02 | 53 | 1013.5 |
| 20260507081604 | 60 | 231 | 2.6 | 6.1 | 0.00 | 0.04 | 0.02 | 53 | 1013.4 |
| 20260507081100 | 60 | 241 | 2.6 | 6.1 | 0.00 | 0.04 | 0.02 | 51 | 1013.4 |
| 20260507080556 | 60 | 245 | 1.7 | 5.2 | 0.00 | 0.04 | 0.02 | 52 | 1013.4 |
| 20260507080100 | 59 | 262 | 0.9 | 4.3 | 0.00 | 0.04 | 0.02 | 51 | 1013.2 |
| 20260507075555 | 59 | 237 | 0.9 | 4.3 | 0.00 | 0.04 | 0.02 | 51 | 1013.3 |
| 20260507075054 | 59 | 194 | 0.9 | 4.3 | 0.00 | 0.04 | 0.02 | 51 | 1013.3 |
| 20260507074607 | 59 | 248 | 0.9 | 3.5 | 0.00 | 0.04 | 0.02 | 52 | 1013.3 |
| 20260507074054 | 59 | 258 | 0.9 | 3.5 | 0.00 | 0.04 | 0.02 | 53 | 1013.3 |
| 20260507073554 | 59 | 241 | 0.9 | 7.0 | 0.00 | 0.04 | 0.02 | 52 | 1013.2 |
| 20260507073053 | 59 | 253 | 1.7 | 7.0 | 0.00 | 0.04 | 0.02 | 52 | 1013.3 |
| 20260507072553 | 59 | 263 | 2.6 | 7.8 | 0.00 | 0.04 | 0.02 | 51 | 1013.3 |
| 20260507072052 | 59 | 236 | 2.6 | 7.8 | 0.00 | 0.04 | 0.02 | 50 | 1013.2 |
| 20260507071552 | 59 | 232 | 1.7 | 4.3 | 0.00 | 0.04 | 0.02 | 49 | 1013.2 |
| 20260507071051 | 59 | 284 | 1.7 | 4.3 | 0.00 | 0.04 | 0.02 | 49 | 1013.2 |
| 20260507070550 | 59 | 263 | 1.7 | 4.3 | 0.00 | 0.04 | 0.02 | 48 | 1013.2 |
| 20260507070049 | 59 | 261 | 0.9 | 6.1 | 0.00 | 0.04 | 0.02 | 47 | 1013.0 |
| 20260507065549 | 59 | 241 | 0.0 | 6.1 | 0.00 | 0.04 | 0.02 | 46 | 1013.0 |
| 20260507065047 | 59 | 238 | 2.6 | 6.1 | 0.00 | 0.04 | 0.02 | 44 | 1012.9 |
| 20260507064547 | 58 | 256 | 0.9 | 4.3 | 0.00 | 0.04 | 0.02 | 43 | 1012.9 |
| 20260507064047 | 58 | 259 | 1.7 | 6.1 | 0.00 | 0.04 | 0.02 | 42 | 1012.9 |
| 20260507063545 | 58 | 225 | 2.6 | 6.1 | 0.00 | 0.04 | 0.02 | 42 | 1013.0 |
| 20260507063045 | 58 | 236 | 0.9 | 4.3 | 0.00 | 0.04 | 0.02 | 41 | 1013.0 |
| 20260507062544 | 57 | 198 | 0.9 | 4.3 | 0.00 | 0.04 | 0.02 | 40 | 1012.9 |
| 20260507062046 | 57 | 132 | 0.9 | 6.1 | 0.00 | 0.04 | 0.02 | 40 | 1013.0 |
| 20260507061543 | 57 | 210 | 1.7 | 6.1 | 0.00 | 0.04 | 0.02 | 39 | 1013.0 |
| 20260507061044 | 57 | 212 | 2.6 | 7.8 | 0.00 | 0.04 | 0.02 | 40 | 1013.0 |
| 20260507060542 | 57 | 173 | 2.6 | 7.8 | 0.00 | 0.04 | 0.02 | 36 | 1013.0 |
| 20260507060047 | 57 | 211 | 4.3 | 7.8 | 0.00 | 0.04 | 0.02 | 32 | 1012.9 |
| 20260507055641 | 57 | 206 | 3.5 | 7.0 | 0.00 | 0.04 | 0.02 | 30 | 1012.9 |
| 20260507055042 | 56 | 177 | 2.6 | 6.1 | 0.00 | 0.04 | 0.02 | 29 | 1012.8 |
| 20260507054552 | 55 | 194 | 2.6 | 6.1 | 0.00 | 0.04 | 0.02 | 29 | 1012.7 |
| 20260507054039 | 55 | 204 | 2.6 | 5.2 | 0.00 | 0.04 | 0.02 | 31 | 1012.7 |
| 20260507053537 | 54 | 159 | 2.6 | 5.2 | 0.00 | 0.04 | 0.02 | 31 | 1012.7 |
| 20260507053036 | 54 | 169 | 2.6 | 5.2 | 0.00 | 0.04 | 0.02 | 31 | 1012.8 |
| 20260507052536 | 54 | 183 | 1.7 | 5.2 | 0.00 | 0.04 | 0.02 | 31 | 1012.8 |
| 20260507052035 | 54 | 181 | 2.6 | 5.2 | 0.00 | 0.04 | 0.02 | 31 | 1012.8 |
| 20260507051535 | 54 | 196 | 0.9 | 3.5 | 0.00 | 0.04 | 0.02 | 31 | 1012.8 |
| 20260507051034 | 54 | 194 | 0.9 | 3.5 | 0.00 | 0.04 | 0.02 | 32 | 1012.8 |
| 20260507050532 | 54 | 188 | 0.9 | 4.3 | 0.00 | 0.04 | 0.02 | 32 | 1012.8 |
| 20260507050131 | 54 | 211 | 1.7 | 4.3 | 0.00 | 0.04 | 0.02 | 32 | 1012.7 |
| 20260507045531 | 54 | 203 | 2.6 | 4.3 | 0.00 | 0.04 | 0.02 | 33 | 1012.7 |
| 20260507045029 | 54 | 190 | 1.7 | 3.5 | 0.00 | 0.04 | 0.02 | 33 | 1012.8 |
| 20260507044527 | 54 | 217 | 0.9 | 5.2 | 0.00 | 0.04 | 0.02 | 33 | 1012.7 |
| 20260507044026 | 54 | 186 | 0.9 | 5.2 | 0.00 | 0.04 | 0.02 | 33 | 1012.6 |
| 20260507043526 | 54 | 209 | 0.9 | 2.6 | 0.00 | 0.04 | 0.02 | 33 | 1012.6 |
| 20260507043025 | 54 | 159 | 0.9 | 2.6 | 0.00 | 0.04 | 0.02 | 33 | 1012.6 |
| 20260507042525 | 54 | 175 | 0.0 | 3.5 | 0.00 | 0.04 | 0.02 | 33 | 1012.4 |
| 20260507042024 | 54 | 153 | 0.9 | 6.1 | 0.00 | 0.04 | 0.02 | 33 | 1012.4 |
| 20260507041523 | 54 | 219 | 1.7 | 6.1 | 0.00 | 0.04 | 0.02 | 33 | 1012.3 |
| 20260507041022 | 54 | 180 | 1.7 | 6.1 | 0.00 | 0.04 | 0.02 | 33 | 1012.3 |
| 20260507040523 | 54 | 173 | 0.0 | 3.5 | 0.00 | 0.04 | 0.02 | 33 | 1012.2 |
| 20260507040022 | 54 | 178 | 0.0 | 4.3 | 0.00 | 0.04 | 0.02 | 33 | 1012.2 |
| 20260507035521 | 54 | 188 | 1.7 | 4.3 | 0.00 | 0.04 | 0.02 | 33 | 1012.2 |
| 20260507035022 | 54 | 189 | 0.9 | 3.5 | 0.00 | 0.04 | 0.02 | 34 | 1012.2 |
| 20260507034521 | 54 | 201 | 1.7 | 4.3 | 0.00 | 0.04 | 0.02 | 34 | 1012.1 |
| 20260507034021 | 54 | 190 | 0.9 | 4.3 | 0.00 | 0.04 | 0.02 | 34 | 1012.1 |
| 20260507033521 | 54 | 192 | 1.7 | 4.3 | 0.00 | 0.04 | 0.02 | 34 | 1012.0 |
| 20260507033023 | 54 | 170 | 0.0 | 2.6 | 0.00 | 0.04 | 0.02 | 34 | 1012.0 |
| 20260507032520 | 54 | 181 | 0.0 | 2.6 | 0.00 | 0.04 | 0.02 | 34 | 1012.0 |
| 20260507032023 | 54 | 163 | 0.0 | 1.7 | 0.00 | 0.04 | 0.02 | 34 | 1012.0 |
| 20260507031519 | 54 | 128 | 0.0 | 1.7 | 0.00 | 0.04 | 0.02 | 34 | 1012.0 |
| 20260507031022 | 54 | 171 | 0.0 | 1.7 | 0.00 | 0.04 | 0.02 | 35 | 1011.9 |
| 20260507030520 | 54 | 150 | 0.0 | 2.6 | 0.00 | 0.04 | 0.02 | 35 | 1012.0 |
| 20260507030019 | 54 | 173 | 0.0 | 2.6 | 0.00 | 0.04 | 0.02 | 35 | 1012.0 |
| 20260507025518 | 54 | 137 | 0.9 | 2.6 | 0.00 | 0.04 | 0.02 | 35 | 1012.0 |
| 20260507025018 | 54 | 172 | 0.0 | 2.6 | 0.00 | 0.04 | 0.02 | 35 | 1012.0 |
| 20260507024521 | 54 | 130 | 0.0 | 2.6 | 0.01 | 0.04 | 0.02 | 35 | 1012.0 |
| 20260507024025 | 54 | 142 | 0.0 | 4.3 | 0.02 | 0.04 | 0.02 | 35 | 1012.0 |
| 20260507023517 | 55 | 135 | 0.9 | 4.3 | 0.02 | 0.04 | 0.02 | 35 | 1012.0 |
| 20260507023017 | 55 | 132 | 1.7 | 3.5 | 0.02 | 0.04 | 0.02 | 36 | 1011.9 |
| 20260507022516 | 55 | 183 | 0.0 | 3.5 | 0.02 | 0.04 | 0.02 | 36 | 1012.0 |
| 20260507022018 | 55 | 238 | 0.9 | 3.5 | 0.02 | 0.04 | 0.02 | 36 | 1012.0 |
| 20260507021515 | 55 | 242 | 0.0 | 2.6 | 0.02 | 0.04 | 0.02 | 36 | 1011.9 |
| 20260507021015 | 55 | 205 | 0.0 | 2.6 | 0.02 | 0.04 | 0.02 | 36 | 1011.9 |
| 20260507020517 | 55 | 237 | 0.9 | 2.6 | 0.02 | 0.04 | 0.02 | 37 | 1011.9 |
| 20260507020015 | 55 | 222 | 0.0 | 1.7 | 0.02 | 0.04 | 0.02 | 37 | 1011.9 |
| 20260507015515 | 55 | 215 | 0.0 | 2.6 | 0.02 | 0.04 | 0.02 | 37 | 1011.9 |
| 20260507015014 | 55 | 208 | 0.0 | 2.6 | 0.01 | 0.03 | 0.02 | 37 | 1011.9 |
| 20260507014518 | 55 | 213 | 0.0 | 2.6 | 0.01 | 0.03 | 0.02 | 37 | 1011.9 |
| 20260507014014 | 55 | 171 | 0.0 | 2.6 | 0.00 | 0.02 | 0.01 | 37 | 1011.8 |
| 20260507013513 | 55 | 175 | 0.0 | 2.6 | 0.00 | 0.02 | 0.01 | 37 | 1011.8 |
| 20260507013013 | 55 | 216 | 0.9 | 2.6 | 0.00 | 0.02 | 0.01 | 37 | 1011.8 |
| 20260507012513 | 55 | 196 | 0.0 | 2.6 | 0.00 | 0.02 | 0.01 | 38 | 1011.9 |
| 20260507012015 | 55 | 210 | 0.9 | 3.5 | 0.00 | 0.02 | 0.01 | 38 | 1012.0 |
| 20260507011512 | 55 | 214 | 0.9 | 3.5 | 0.00 | 0.02 | 0.01 | 38 | 1012.0 |
| 20260507011013 | 55 | 194 | 1.7 | 3.5 | 0.00 | 0.02 | 0.01 | 38 | 1011.9 |
| 20260507010511 | 55 | 211 | 0.0 | 3.5 | 0.00 | 0.02 | 0.01 | 38 | 1011.9 |
| 20260507010011 | 55 | 186 | 0.0 | 3.5 | 0.00 | 0.02 | 0.01 | 39 | 1011.9 |
| 20260507005510 | 55 | 198 | 0.9 | 5.2 | 0.00 | 0.02 | 0.01 | 39 | 1011.9 |
| 20260507005013 | 55 | 185 | 0.9 | 5.2 | 0.00 | 0.02 | 0.01 | 39 | 1011.9 |
| 20260507004513 | 55 | 195 | 1.7 | 5.2 | 0.00 | 0.02 | 0.01 | 39 | 1011.8 |
| 20260507004013 | 55 | 198 | 1.7 | 5.2 | 0.00 | 0.02 | 0.01 | 39 | 1011.8 |
| 20260507003509 | 55 | 215 | 0.0 | 3.5 | 0.00 | 0.02 | 0.01 | 40 | 1011.9 |
| 20260507003008 | 55 | 211 | 0.0 | 5.2 | 0.00 | 0.02 | 0.01 | 40 | 1011.8 |
| 20260507002508 | 55 | 205 | 1.7 | 5.2 | 0.00 | 0.02 | 0.01 | 40 | 1011.8 |
| 20260507002007 | 55 | 173 | 0.0 | 3.5 | 0.00 | 0.02 | 0.01 | 40 | 1011.7 |
| 20260507001506 | 55 | 144 | 0.9 | 3.5 | 0.00 | 0.02 | 0.01 | 40 | 1011.7 |
| 20260507001007 | 56 | 198 | 0.0 | 1.7 | 0.00 | 0.02 | 0.01 | 41 | 1011.7 |
| 20260507000505 | 56 | 187 | 0.0 | 3.5 | 0.00 | 0.02 | 0.01 | 41 | 1011.8 |
| 20260507000005 | 56 | 179 | 0.9 | 4.3 | 0.00 | 0.02 | 0.01 | 41 | 1011.7 |
| 20260506235505 | 56 | 197 | 1.7 | 5.2 | 0.00 | 0.02 | 0.01 | 41 | 1011.7 |
| 20260506235003 | 56 | 202 | 2.6 | 5.2 | 0.00 | 0.02 | 0.01 | 41 | 1011.9 |
| 20260506234503 | 56 | 194 | 0.9 | 5.2 | 0.00 | 0.02 | 0.01 | 42 | 1012.0 |
| 20260506234003 | 56 | 180 | 0.9 | 3.5 | 0.00 | 0.02 | 0.01 | 42 | 1012.0 |
| 20260506233503 | 56 | 206 | 1.7 | 3.5 | 0.00 | 0.02 | 0.01 | 43 | 1012.1 |
| 20260506233002 | 56 | 161 | 0.9 | 4.3 | 0.00 | 0.02 | 0.01 | 43 | 1012.1 |
| 20260506232502 | 56 | 166 | 0.9 | 4.3 | 0.01 | 0.02 | 0.01 | 44 | 1012.1 |
| 20260506232101 | 56 | 166 | 0.9 | 4.3 | 0.01 | 0.02 | 0.01 | 44 | 1012.1 |
| 20260506231600 | 56 | 143 | 0.0 | 2.6 | 0.01 | 0.02 | 0.01 | 44 | 1012.1 |
| 20260506231103 | 56 | 161 | 0.0 | 2.6 | 0.01 | 0.02 | 0.01 | 44 | 1012.2 |
| 20260506230558 | 56 | 157 | 0.0 | 2.6 | 0.01 | 0.02 | 0.01 | 44 | 1012.1 |